Terug naar catalogus

SL-16 DEB

LostLEO
NORAD 39870·DEBRIS·🇷🇺 Russia

Gelanceerd Mar 26, 1993 vanaf Baikonur Cosmodrome

Loading…

Volgende Passages (komende 24 uur)

TLE

VerouderdSource: Space-Track

Epoch: Nov 29, 2022, 01:41 UTC

1 39870U 93016AU  22333.07047867  .00005529  00000-0  20732-2 0  9995
2 39870  70.9830 119.9293 0121403 316.9527  42.2153 14.28069958 11780

Volg SL-16 DEB in realtime met AllMySat

Download on the App Store